[[{"header":{"parameterUnit":"m.s-1","parameterCategory":1,"la1":30.2991,"la2":30.254,"lo1":-89.0895,"lo2":-89.0444,"dy":0.0017,"dx":0.0017,"nx":28,"ny":28,"refTime":"2025-11-15T09:00:00:Z","depth":0,"parameterNumber":2,"parameterNumberName":"U-component_of_WINDS"},"data":[0,0,0,0,0,0,0,0,0,0,0,0,0,0,0,0,0,0,0,0,0,0,0,0,0,0,0,0,0,0,0,0,0,0,0,0,0,0,0,0,0,0,0,0,0,0,0,0,0,0,0,0,0,0,0,0,0,0,0.5687,0.5688,0,0.5708,0.5708,0.5708,0.5673,0.5672,0.567,0.5669,0.5692,0.5694,0.5695,0,0,0,0,0,0,0,0,0,0,0,0,0,0.5618,0.5619,0.5687,0.5688,0.5688,0.5708,0.5708,0.5708,0.5673,0.5672,0.567,0.5669,0.5692,0.5694,0.5696,0,0,0,0,0,0,0,0,0,0,0,0,0,0.5644,0.562,0.5687,0.5673,0.5671,0.5708,0.5708,0.5709,0.5673,0.5672,0.567,0.5668,0.5691,0.5693,0.5696,0.5748,0,0,0.5704,0.5705,0,0,0,0,0,0,0,0,0.5643,0.5647,0.5674,0.5674,0.5672,0.5686,0.5692,0.5722,0.5674,0.5673,0.5669,0.5667,0.5692,0.5694,0.5702,0.5749,0.575,0.5704,0.5706,0.5707,0.5708,0,0,0,0,0,0,0,0.5641,0.5646,0.5695,0.5675,0.5674,0.5665,0.5667,0.5697,0.5692,0.5673,0.567,0.5673,0.5691,0.57,0.5702,0.5751,0.5704,0.5706,0.5708,0.5709,0.5841,0.5842,0,0,0,0,0,0,0.5641,0.5644,0.5695,0.5696,0.5653,0.5668,0.567,0.5683,0.5692,0.5691,0.5674,0.5671,0.5696,0.5699,0.5703,0.5764,0.5707,0.5709,0.5711,0.5839,0.5841,0.5843,0,0,0,0,0,0,0.5639,0.5646,0.5694,0.567,0.5675,0.5671,0.5687,0.5685,0.5694,0.5693,0.5692,0.5684,0.5695,0.5699,0.5737,0.5764,0.571,0.5713,0.5836,0.5839,0.5842,0.5888,0,0,0,0,0,0,0.5638,0.5645,0.5665,0.567,0.5676,0.5728,0.5688,0.5687,0.5698,0.5694,0.5702,0.5702,0.5694,0.5733,0.5739,0.5767,0.5715,0.5834,0.5838,0.5841,0.5884,0.5892,0.5899,0,0,0,0,0,0.5635,0.5678,0.5666,0.5673,0.5701,0.5729,0.5733,0.5722,0.57,0.572,0.572,0.5701,0.576,0.5737,0.5744,0.5773,0.5832,0.5837,0.5841,0.588,0.589,0.5898,0,0,0,0,0,0,0.5677,0.5678,0.5666,0.5711,0.572,0.5723,0.5748,0.5733,0.5749,0.5745,0.5731,0.5733,0.5774,0.5777,0.5751,0.5823,0.5792,0.5798,0.582,0.5829,0.5837,0.5836,0.5717,0,0,0,0,0,0.5691,0.5714,0.5714,0.5754,0.5759,0.5753,0.5765,0.5755,0.5765,0.5769,0.5771,0.5781,0.5801,0.5815,0.5834,0.5883,0.5885,0.5906,0.5914,0.592,0.5926,0.5951,0.5961,0.5857,0.5857,0.5857,0,0,0.5722,0.5725,0.574,0.5762,0.5768,0.5792,0.5756,0.5783,0.5801,0.5773,0.5808,0.581,0.582,0.5864,0.5883,0.5868,0.5954,0.5926,0.5931,0.5933,0.5957,0.5967,0.5975,0.586,0.586,0.5859,0,0,0.5789,0.5794,0.5827,0.5834,0.5843,0.5838,0.5846,0.5851,0.5851,0.5886,0.5866,0.5886,0.5922,0.593,0.5939,0.6007,0.5991,0.6013,0.6053,0.6078,0.6087,0.6094,0.6118,0.6127,0.6019,0.6019,0.6019,0,0.5826,0.5861,0.5847,0.5875,0.5885,0.5859,0.5893,0.59,0.5916,0.5923,0.5905,0.5949,0.5954,0.5999,0.6015,0.6023,0.6032,0.6013,0.6086,0.6093,0.61,0.6123,0.6132,0.6022,0.6021,0.6021,0.6021,0,0.5905,0.5929,0.5955,0.597,0.5983,0.6014,0.6004,0.6019,0.6008,0.6005,0.6041,0.6046,0.6065,0.6075,0.6065,0.6118,0.6108,0.6088,0.6057,0.6113,0.6134,0.6143,0.6026,0.6025,0.6024,0.6023,0,0,0.6001,0.6006,0.6016,0.6022,0.6029,0.6048,0.6077,0.6095,0.6108,0.6119,0.6143,0.6173,0.6155,0.6165,0.6155,0.6177,0.6231,0.6155,0.6155,0.6169,0.6289,0.6305,0.6315,0.6219,0.6221,0.6222,0.6289,0,0.6068,0.6118,0.6106,0.6156,0.6178,0.6153,0.6179,0.6186,0.6184,0.6202,0.6199,0.6221,0.6195,0.6201,0.6221,0.622,0.6255,0.6215,0.6243,0.6244,0.6242,0.6326,0.6343,0.6405,0.6297,0.6298,0.6299,0,0.6154,0.6167,0.6219,0.6221,0.623,0.6253,0.6268,0.6286,0.6293,0.629,0.63,0.6286,0.6315,0.6282,0.6322,0.6295,0.6305,0.6306,0.6308,0.6312,0.6276,0.6332,0.6425,0.6435,0.6313,0.6312,0.6311,0,0.6219,0.6249,0.6284,0.629,0.6294,0.6311,0.6313,0.6319,0.633,0.6343,0.635,0.6366,0.6376,0.6389,0.6379,0.6356,0.642,0.6387,0.6419,0.6419,0.6435,0.6434,0.6531,0.644,0.644,0.644,0.6439,0,0.6296,0.6328,0.6313,0.6335,0.6371,0.6356,0.6392,0.6391,0.6396,0.6417,0.6396,0.6417,0.6402,0.6421,0.6414,0.6448,0.6452,0.6451,0.6448,0.6453,0.6453,0.646,0.6456,0.6442,0.6441,0.6441,0.6441,0,0.6375,0.6366,0.6403,0.6403,0.6404,0.643,0.643,0.645,0.6445,0.6472,0.6478,0.6471,0.6492,0.6483,0.6506,0.6501,0.6544,0.6536,0.6542,0.654,0.6572,0.657,0.6678,0.6692,0.6591,0.6592,0.6593,0,0.6425,0.6449,0.6452,0.6464,0.6468,0.6488,0.6499,0.6485,0.6497,0.6507,0.6525,0.6544,0.6559,0.6594,0.6591,0.6608,0.6601,0.6637,0.6603,0.6607,0.6602,0.6601,0.6603,0.6645,0.6646,0.6647,0.6648,0,0.6515,0.6509,0.6525,0.654,0.6553,0.6564,0.6573,0.6585,0.6571,0.6585,0.6606,0.6618,0.664,0.6659,0.6674,0.6677,0.666,0.6658,0.6666,0.6672,0.6674,0.6674,0.6561,0.6656,0.6655,0.6655,0.6654,0.6654,0.6581,0.6601,0.6606,0.6625,0.663,0.6639,0.6657,0.6654,0.6671,0.6688,0.6678,0.6703,0.6709,0.6727,0.6732,0.6751,0.6736,0.6748,0.6751,0.6755,0.6759,0.667,0.6753,0.6753,0.6753,0.6752,0.6752,0,0.667,0.6671,0.6688,0.6702,0.6716,0.6698,0.6707,0.672,0.6742,0.6748,0.6763,0.6786,0.6805,0.6803,0.682,0.6835,0.6828,0.684,0.6839,0.684,0.6771,0.6762,0.6846,0.6846,0.6846,0.6846,0.6846,0.6846,0.6718,0.6751,0.6746,0.6781,0.6782,0.6806,0.6812,0.682,0.6825,0.6852,0.6867,0.6865,0.6868,0.6885,0.6901,0.69,0.6907,0.6923,0.6919,0.6854,0.6845,0.6836,0.6828,0.6924,0.6924,0.6987,0.6987,0.6988]},{"header":{"parameterUnit":"m.s-1","parameterCategory":1,"la1":30.2991,"la2":30.254,"lo1":-89.0895,"lo2":-89.0444,"dy":0.0017,"dx":0.0017,"nx":28,"ny":28,"refTime":"2025-11-15T09:00:00:Z","depth":0,"parameterNumber":3,"parameterNumberName":"V-component_of_WINDS"},"data":[0,0,0,0,0,0,0,0,0,0,0,0,0,0,0,0,0,0,0,0,0,0,0,0,0,0,0,0,0,0,0,0,0,0,0,0,0,0,0,0,0,0,0,0,0,0,0,0,0,0,0,0,0,0,0,0,0,0,3.5203,3.5204,0,3.5318,3.5319,3.5321,3.5327,3.5325,3.5324,3.5323,3.5438,3.5442,3.5446,0,0,0,0,0,0,0,0,0,0,0,0,0,3.4988,3.4992,3.5203,3.5204,3.5206,3.5318,3.5319,3.5321,3.5327,3.5325,3.5324,3.5322,3.5436,3.5441,3.5447,0,0,0,0,0,0,0,0,0,0,0,0,0,3.509,3.4993,3.5203,3.5222,3.5225,3.5318,3.532,3.5321,3.5327,3.5325,3.5323,3.5322,3.5435,3.5441,3.5447,3.5527,0,0,3.5467,3.547,0,0,0,0,0,0,0,0,3.5084,3.5098,3.5218,3.5221,3.5225,3.5306,3.5286,3.539,3.5328,3.5289,3.5323,3.5321,3.5395,3.5405,3.5431,3.5532,3.5537,3.5468,3.5471,3.5474,3.5476,0,0,0,0,0,0,0,3.5077,3.5093,3.5248,3.522,3.5224,3.5225,3.5238,3.5306,3.5352,3.5292,3.5293,3.5306,3.5397,3.5425,3.5433,3.5539,3.5467,3.5473,3.5477,3.548,3.5713,3.5716,0,0,0,0,0,0,3.5066,3.5087,3.5245,3.5252,3.5148,3.5231,3.5245,3.5282,3.5351,3.536,3.5308,3.5306,3.5415,3.5426,3.5438,3.5537,3.5474,3.548,3.5484,3.5711,3.5714,3.5717,0,0,0,0,0,0,3.5062,3.508,3.524,3.517,3.519,3.5237,3.5279,3.5285,3.5313,3.5363,3.5371,3.5328,3.5413,3.5428,3.5505,3.5541,3.5483,3.5489,3.5708,3.5712,3.5715,3.5734,0,0,0,0,0,0,3.5056,3.5079,3.5109,3.517,3.5194,3.5306,3.5281,3.5289,3.5324,3.5323,3.5384,3.5392,3.5413,3.5496,3.5512,3.5548,3.5494,3.5705,3.571,3.5714,3.5731,3.5738,3.5744,0,0,0,0,0,3.5048,3.5109,3.5111,3.513,3.5233,3.5308,3.5322,3.5345,3.5327,3.5359,3.5391,3.539,3.5534,3.5503,3.5522,3.5561,3.5703,3.5709,3.5714,3.5728,3.5737,3.5744,0,0,0,0,0,0,3.5049,3.5117,3.512,3.5203,3.525,3.5309,3.5349,3.5354,3.5406,3.5403,3.5429,3.5443,3.5519,3.5548,3.5512,3.5643,3.5617,3.5626,3.5621,3.563,3.5637,3.5628,3.5499,0,0,0,0,0,3.506,3.5115,3.5171,3.5239,3.5263,3.5302,3.5335,3.535,3.5399,3.5419,3.5457,3.5504,3.5561,3.5597,3.5651,3.5735,3.5749,3.5771,3.5778,3.5783,3.5791,3.5839,3.585,3.5734,3.5734,3.5734,0,0,3.5081,3.5125,3.5158,3.524,3.5279,3.5336,3.5318,3.5379,3.5422,3.5428,3.5503,3.5533,3.5588,3.5669,3.5707,3.5695,3.5826,3.579,3.5794,3.5799,3.5846,3.5857,3.5867,3.5738,3.5737,3.5736,0,0,3.5148,3.5187,3.5249,3.5288,3.5347,3.5373,3.5388,3.5447,3.5468,3.5544,3.5551,3.5602,3.5697,3.5737,3.5769,3.5855,3.5857,3.5872,3.5908,3.5954,3.5964,3.5972,3.6004,3.6014,3.588,3.588,3.588,0,3.5167,3.5254,3.5279,3.5341,3.5377,3.5388,3.5451,3.5487,3.556,3.5585,3.5571,3.5694,3.5731,3.5823,3.5844,3.587,3.5888,3.5865,3.596,3.5969,3.5977,3.6008,3.6019,3.5881,3.5881,3.5881,3.5881,0,3.5274,3.5334,3.5377,3.5449,3.5491,3.5552,3.5588,3.5627,3.5638,3.5666,3.5745,3.5791,3.5855,3.5878,3.5889,3.5972,3.5964,3.5955,3.5929,3.5989,3.6018,3.603,3.5883,3.5883,3.5882,3.5882,0,0,3.5344,3.5432,3.5447,3.5481,3.5548,3.5595,3.5658,3.5722,3.5756,3.5806,3.586,3.5943,3.5936,3.5973,3.5989,3.603,3.6097,3.6017,3.6018,3.6031,3.6193,3.6199,3.6212,3.6099,3.6101,3.6103,3.6189,0,3.542,3.5533,3.5559,3.5655,3.5712,3.5724,3.5779,3.5826,3.5854,3.5907,3.5937,3.5996,3.5982,3.6005,3.6046,3.608,3.613,3.6074,3.6149,3.6151,3.6135,3.6227,3.6234,3.6312,3.62,3.6202,3.6203,0,3.5523,3.5578,3.568,3.5742,3.5767,3.5816,3.5879,3.5928,3.5982,3.6,3.6043,3.6056,3.6122,3.6094,3.6186,3.6148,3.618,3.6202,3.6206,3.6213,3.6181,3.6238,3.6338,3.635,3.6221,3.622,3.6219,0,3.5565,3.5664,3.5739,3.5768,3.5841,3.5875,3.5908,3.596,3.5998,3.6053,3.6078,3.6139,3.6173,3.622,3.6249,3.6226,3.634,3.6314,3.6357,3.6356,3.638,3.6378,3.6486,3.64,3.64,3.64,3.6399,0,3.5646,3.5709,3.5759,3.5805,3.5876,3.5906,3.5976,3.6008,3.6055,3.6108,3.6122,3.6171,3.6206,3.626,3.6283,3.6357,3.6372,3.6388,3.6394,3.6387,3.6385,3.6409,3.6404,3.6403,3.6402,3.6401,3.6401,0,3.5704,3.5741,3.5824,3.5887,3.5905,3.5954,3.6009,3.6055,3.6084,3.6151,3.6168,3.6215,3.628,3.6314,3.6394,3.641,3.6493,3.6495,3.6475,3.6477,3.6519,3.6515,3.6646,3.6666,3.6566,3.6567,3.6568,0,3.5754,3.5803,3.5873,3.591,3.5943,3.6002,3.6042,3.6074,3.6115,3.6182,3.622,3.6286,3.634,3.6444,3.6484,3.6546,3.655,3.6592,3.6559,3.6552,3.6552,3.6549,3.6554,3.6598,3.6598,3.6599,3.66,0,3.5839,3.5855,3.5912,3.5977,3.6024,3.6076,3.6127,3.6156,3.6197,3.6242,3.631,3.6352,3.6436,3.6502,3.6568,3.66,3.6608,3.661,3.6624,3.6618,3.6605,3.6613,3.6491,3.6607,3.6606,3.6606,3.6605,3.6605,3.5895,3.594,3.5997,3.606,3.6103,3.6151,3.6198,3.6234,3.6291,3.6363,3.6378,3.645,3.6505,3.6595,3.663,3.6687,3.6678,3.6697,3.6702,3.6706,3.6709,3.6596,3.6698,3.6698,3.6698,3.6698,3.6698,0,3.5982,3.6019,3.6078,3.615,3.62,3.6204,3.6262,3.6304,3.6367,3.6418,3.6472,3.6551,3.6616,3.6662,3.6728,3.6765,3.677,3.6781,3.6779,3.6787,3.6712,3.6694,3.6776,3.6776,3.6776,3.6776,3.6776,3.6776,3.6032,3.6109,3.6132,3.6231,3.6268,3.6339,3.6372,3.6417,3.6458,3.6546,3.66,3.6631,3.6681,3.6751,3.6811,3.6823,3.6847,3.6858,3.687,3.68,3.6792,3.6784,3.6767,3.6863,3.6863,3.6941,3.6941,3.6942]}]]